Year,Month,Day,Hour,Minute,Value (Times are PST for temperature in C)
2017,10,26,00,00,7.70
2017,10,26,00,01,7.70
2017,10,26,00,02,7.60
2017,10,26,00,03,7.60
2017,10,26,00,04,7.60
2017,10,26,00,05,7.70
2017,10,26,00,06,7.70
2017,10,26,00,07,7.70
2017,10,26,00,08,7.70
2017,10,26,00,09,7.70
2017,10,26,00,10,7.70
2017,10,26,00,11,7.60
2017,10,26,00,12,7.60
2017,10,26,00,13,7.50
2017,10,26,00,14,7.50
2017,10,26,00,15,7.40
2017,10,26,00,16,7.40
2017,10,26,00,17,7.40
2017,10,26,00,18,7.40
2017,10,26,00,19,7.40
2017,10,26,00,20,7.40
2017,10,26,00,21,7.40
2017,10,26,00,22,7.40
2017,10,26,00,23,7.40
2017,10,26,00,24,7.40
2017,10,26,00,25,7.40
2017,10,26,00,26,7.40
2017,10,26,00,27,7.40
2017,10,26,00,28,7.50
2017,10,26,00,29,7.50
2017,10,26,00,30,7.40
2017,10,26,00,31,7.40
2017,10,26,00,32,7.50
2017,10,26,00,33,7.50
2017,10,26,00,34,7.60
2017,10,26,00,35,7.60
2017,10,26,00,36,7.60
2017,10,26,00,37,7.60
2017,10,26,00,38,7.60
2017,10,26,00,39,7.60
2017,10,26,00,40,7.70
2017,10,26,00,41,7.70
2017,10,26,00,42,7.70
2017,10,26,00,43,7.70
2017,10,26,00,44,7.70
2017,10,26,00,45,7.80
2017,10,26,00,46,7.80
2017,10,26,00,47,7.80
2017,10,26,00,48,7.80
2017,10,26,00,49,7.90
2017,10,26,00,50,7.90
2017,10,26,00,51,7.90
2017,10,26,00,52,8.00
2017,10,26,00,53,8.10
2017,10,26,00,54,8.30
2017,10,26,00,55,8.40
2017,10,26,00,56,8.50
2017,10,26,00,57,8.70
2017,10,26,00,58,8.80
2017,10,26,00,59,8.80
2017,10,26,01,00,8.90
2017,10,26,01,01,8.90
2017,10,26,01,02,9.00
2017,10,26,01,03,9.00
2017,10,26,01,04,9.00
2017,10,26,01,05,9.00
2017,10,26,01,06,9.00
2017,10,26,01,07,9.00
2017,10,26,01,08,9.00
2017,10,26,01,09,9.00
2017,10,26,01,10,9.00
2017,10,26,01,11,9.10
2017,10,26,01,12,9.10
2017,10,26,01,13,9.00
2017,10,26,01,14,9.00
2017,10,26,01,15,9.00
2017,10,26,01,16,9.00
2017,10,26,01,17,9.00
2017,10,26,01,18,9.00
2017,10,26,01,19,9.00
2017,10,26,01,20,9.00
2017,10,26,01,21,9.00
2017,10,26,01,22,9.00
2017,10,26,01,23,9.00
2017,10,26,01,24,9.00
2017,10,26,01,25,9.10
2017,10,26,01,26,9.10
2017,10,26,01,27,9.10
2017,10,26,01,28,9.10
2017,10,26,01,29,9.10
2017,10,26,01,30,9.20
2017,10,26,01,31,9.20
2017,10,26,01,32,9.20
2017,10,26,01,33,9.30
2017,10,26,01,34,9.30
2017,10,26,01,35,9.30
2017,10,26,01,36,9.30
2017,10,26,01,37,9.30
2017,10,26,01,38,9.40
2017,10,26,01,39,9.40
2017,10,26,01,40,9.40
2017,10,26,01,41,9.50
2017,10,26,01,42,9.60
2017,10,26,01,43,9.60
2017,10,26,01,44,9.70
2017,10,26,01,45,9.70
2017,10,26,01,46,9.80
2017,10,26,01,47,9.80
2017,10,26,01,48,9.80
2017,10,26,01,49,9.90
2017,10,26,01,50,9.90
2017,10,26,01,51,10.00
2017,10,26,01,52,10.00
2017,10,26,01,53,10.00
2017,10,26,01,54,10.10
2017,10,26,01,55,10.10
2017,10,26,01,56,10.10
2017,10,26,01,57,10.20
2017,10,26,01,58,10.20
2017,10,26,01,59,10.20
2017,10,26,02,00,10.20
2017,10,26,02,01,10.20
2017,10,26,02,02,10.20
2017,10,26,02,03,10.20
2017,10,26,02,04,10.30
2017,10,26,02,05,10.30
2017,10,26,02,06,10.30
2017,10,26,02,07,10.30
2017,10,26,02,08,10.30
2017,10,26,02,09,10.30
2017,10,26,02,10,10.30
2017,10,26,02,11,10.30
2017,10,26,02,12,10.30
2017,10,26,02,13,10.30
2017,10,26,02,14,10.40
2017,10,26,02,15,10.40
2017,10,26,02,16,10.40
2017,10,26,02,17,10.40
2017,10,26,02,18,10.40
2017,10,26,02,19,10.40
2017,10,26,02,20,10.40
2017,10,26,02,21,10.40
2017,10,26,02,22,10.40
2017,10,26,02,23,10.40
2017,10,26,02,24,10.40
2017,10,26,02,25,10.40
2017,10,26,02,26,10.40
2017,10,26,02,27,10.40
2017,10,26,02,28,10.40
2017,10,26,02,29,10.40
2017,10,26,02,30,10.40
2017,10,26,02,31,10.40
2017,10,26,02,32,10.40
2017,10,26,02,33,10.40
2017,10,26,02,34,10.40
2017,10,26,02,35,10.40
2017,10,26,02,36,10.40
2017,10,26,02,37,10.40
2017,10,26,02,38,10.40
2017,10,26,02,39,10.40
2017,10,26,02,40,10.40
2017,10,26,02,41,10.40
2017,10,26,02,42,10.40
2017,10,26,02,43,10.40
2017,10,26,02,44,10.40
2017,10,26,02,45,10.40
2017,10,26,02,46,10.40
2017,10,26,02,47,10.40
2017,10,26,02,48,10.40
2017,10,26,02,49,10.50
2017,10,26,02,50,10.50
2017,10,26,02,51,10.50
2017,10,26,02,52,10.50
2017,10,26,02,53,10.60
2017,10,26,02,54,10.60
2017,10,26,02,55,10.60
2017,10,26,02,56,10.60
2017,10,26,02,57,10.60
2017,10,26,02,58,10.60
2017,10,26,02,59,10.70
2017,10,26,03,00,10.70
2017,10,26,03,01,10.70
2017,10,26,03,02,10.70
2017,10,26,03,03,10.70
2017,10,26,03,04,10.70
2017,10,26,03,05,10.70
2017,10,26,03,06,10.70
2017,10,26,03,07,10.70
2017,10,26,03,08,10.70
2017,10,26,03,09,10.70
2017,10,26,03,10,10.70
2017,10,26,03,11,10.70
2017,10,26,03,12,10.70
2017,10,26,03,13,10.70
2017,10,26,03,14,10.70
2017,10,26,03,15,10.70
2017,10,26,03,16,10.70
2017,10,26,03,17,10.70
2017,10,26,03,18,10.70
2017,10,26,03,19,10.70
2017,10,26,03,20,10.70
2017,10,26,03,21,10.70
2017,10,26,03,22,10.70
2017,10,26,03,23,10.70
2017,10,26,03,24,10.70
2017,10,26,03,25,10.70
2017,10,26,03,26,10.70
2017,10,26,03,27,10.60
2017,10,26,03,28,10.60
2017,10,26,03,29,10.60
2017,10,26,03,30,10.60
2017,10,26,03,31,10.60
2017,10,26,03,32,10.60
2017,10,26,03,33,10.60
2017,10,26,03,34,10.50
2017,10,26,03,35,10.50
2017,10,26,03,36,10.40
2017,10,26,03,37,10.30
2017,10,26,03,38,10.30
2017,10,26,03,39,10.20
2017,10,26,03,40,10.10
2017,10,26,03,41,10.10
2017,10,26,03,42,10.00
2017,10,26,03,43,9.90
2017,10,26,03,44,9.80
2017,10,26,03,45,9.80
2017,10,26,03,46,9.70
2017,10,26,03,47,9.70
2017,10,26,03,48,9.70
2017,10,26,03,49,9.60
2017,10,26,03,50,9.60
2017,10,26,03,51,9.60
2017,10,26,03,52,9.50
2017,10,26,03,53,9.50
2017,10,26,03,54,9.40
2017,10,26,03,55,9.30
2017,10,26,03,56,9.30
2017,10,26,03,57,9.20
2017,10,26,03,58,9.20
2017,10,26,03,59,9.10
2017,10,26,04,00,9.10
2017,10,26,04,01,9.10
2017,10,26,04,02,9.10
2017,10,26,04,03,9.00
2017,10,26,04,04,9.00
2017,10,26,04,05,8.90
2017,10,26,04,06,8.90
2017,10,26,04,07,8.90
2017,10,26,04,08,8.90
2017,10,26,04,09,8.80
2017,10,26,04,10,8.80
2017,10,26,04,11,8.80
2017,10,26,04,12,8.80
2017,10,26,04,13,8.70
2017,10,26,04,14,8.70
2017,10,26,04,15,8.70
2017,10,26,04,16,8.70
2017,10,26,04,17,8.60
2017,10,26,04,18,8.60
2017,10,26,04,19,8.60
2017,10,26,04,20,8.50
2017,10,26,04,21,8.50
2017,10,26,04,22,8.40
2017,10,26,04,23,8.40
2017,10,26,04,24,8.30
2017,10,26,04,25,8.20
2017,10,26,04,26,8.20
2017,10,26,04,27,8.20
2017,10,26,04,28,8.20
2017,10,26,04,29,8.10
2017,10,26,04,30,8.10
2017,10,26,04,31,8.10
2017,10,26,04,32,8.00
2017,10,26,04,33,8.00
2017,10,26,04,34,8.00
2017,10,26,04,35,7.90
2017,10,26,04,36,7.90
2017,10,26,04,37,7.90
2017,10,26,04,38,7.90
2017,10,26,04,39,7.90
2017,10,26,04,40,7.90
2017,10,26,04,41,7.90
2017,10,26,04,42,7.80
2017,10,26,04,43,7.80
2017,10,26,04,44,7.80
2017,10,26,04,45,7.80
2017,10,26,04,46,7.80
2017,10,26,04,47,7.70
2017,10,26,04,48,7.70
2017,10,26,04,49,7.70
2017,10,26,04,50,7.60
2017,10,26,04,51,7.60
2017,10,26,04,52,7.50
2017,10,26,04,53,7.50
2017,10,26,04,54,7.40
2017,10,26,04,55,7.40
2017,10,26,04,56,7.40
2017,10,26,04,57,7.30
2017,10,26,04,58,7.30
2017,10,26,04,59,7.30
2017,10,26,05,00,7.20
2017,10,26,05,01,7.20
2017,10,26,05,02,7.20
2017,10,26,05,03,7.20
2017,10,26,05,04,7.20
2017,10,26,05,05,7.20
2017,10,26,05,06,7.20
2017,10,26,05,07,7.10
2017,10,26,05,08,7.10
2017,10,26,05,09,7.10
2017,10,26,05,10,7.10
2017,10,26,05,11,7.10
2017,10,26,05,12,7.10
2017,10,26,05,13,7.10
2017,10,26,05,14,7.10
2017,10,26,05,15,7.10
2017,10,26,05,16,7.10
2017,10,26,05,17,7.10
2017,10,26,05,18,7.10
2017,10,26,05,19,7.10
2017,10,26,05,20,7.00
2017,10,26,05,21,7.10
2017,10,26,05,22,7.20
2017,10,26,05,23,7.30
2017,10,26,05,24,7.30
2017,10,26,05,25,7.30
2017,10,26,05,26,7.30
2017,10,26,05,27,7.20
2017,10,26,05,28,7.10
2017,10,26,05,29,7.10
2017,10,26,05,30,7.00
2017,10,26,05,31,7.00
2017,10,26,05,32,7.00
2017,10,26,05,33,7.00
2017,10,26,05,34,6.90
2017,10,26,05,35,6.90
2017,10,26,05,36,6.90
2017,10,26,05,37,6.90
2017,10,26,05,38,6.90
2017,10,26,05,39,6.90
2017,10,26,05,40,6.90
2017,10,26,05,41,6.80
2017,10,26,05,42,6.80
2017,10,26,05,43,6.80
2017,10,26,05,44,6.70
2017,10,26,05,45,6.70
2017,10,26,05,46,6.70
2017,10,26,05,47,6.70
2017,10,26,05,48,6.70
2017,10,26,05,49,6.70
2017,10,26,05,50,6.70
2017,10,26,05,51,6.60
2017,10,26,05,52,6.60
2017,10,26,05,53,6.50
2017,10,26,05,54,6.50
2017,10,26,05,55,6.40
2017,10,26,05,56,6.40
2017,10,26,05,57,6.40
2017,10,26,05,58,6.40
2017,10,26,05,59,6.40
2017,10,26,06,00,6.40
2017,10,26,06,01,6.40
2017,10,26,06,02,6.40
2017,10,26,06,03,6.50
2017,10,26,06,04,6.50
2017,10,26,06,05,6.50
2017,10,26,06,06,6.50
2017,10,26,06,07,6.60
2017,10,26,06,08,6.60
2017,10,26,06,09,6.70
2017,10,26,06,10,6.70
2017,10,26,06,11,6.70
2017,10,26,06,12,6.80
2017,10,26,06,13,6.80
2017,10,26,06,14,6.80
2017,10,26,06,15,6.90
2017,10,26,06,16,7.00
2017,10,26,06,17,7.10
2017,10,26,06,18,7.20
2017,10,26,06,19,7.30
2017,10,26,06,20,7.40
2017,10,26,06,21,7.40
2017,10,26,06,22,7.30
2017,10,26,06,23,7.30
2017,10,26,06,24,7.30
2017,10,26,06,25,7.40
2017,10,26,06,26,7.40
2017,10,26,06,27,7.40
2017,10,26,06,28,7.40
2017,10,26,06,29,7.50
2017,10,26,06,30,7.50
2017,10,26,06,31,7.50
2017,10,26,06,32,7.50
2017,10,26,06,33,7.50
2017,10,26,06,34,7.60
2017,10,26,06,35,7.60
2017,10,26,06,36,7.60
2017,10,26,06,37,7.60
2017,10,26,06,38,7.60
2017,10,26,06,39,7.60
2017,10,26,06,40,7.60
2017,10,26,06,41,7.60
2017,10,26,06,42,7.50
2017,10,26,06,43,7.40
2017,10,26,06,44,7.30
2017,10,26,06,45,7.20
2017,10,26,06,46,7.00
2017,10,26,06,47,6.90
2017,10,26,06,48,6.90
2017,10,26,06,49,6.80
2017,10,26,06,50,6.90
2017,10,26,06,51,7.00
2017,10,26,06,52,7.10
2017,10,26,06,53,7.20
2017,10,26,06,54,7.30
2017,10,26,06,55,7.40
2017,10,26,06,56,7.50
2017,10,26,06,57,7.60
2017,10,26,06,58,7.70
2017,10,26,06,59,7.80
2017,10,26,07,00,7.90
2017,10,26,07,01,8.00
2017,10,26,07,02,8.00
2017,10,26,07,03,8.10
2017,10,26,07,04,8.10
2017,10,26,07,05,8.20
2017,10,26,07,06,8.30
2017,10,26,07,07,8.30
2017,10,26,07,08,8.40
2017,10,26,07,09,8.40
2017,10,26,07,10,8.50
2017,10,26,07,11,8.50
2017,10,26,07,12,8.60
2017,10,26,07,13,8.60
2017,10,26,07,14,8.70
2017,10,26,07,15,8.70
2017,10,26,07,16,8.80
2017,10,26,07,17,8.80
2017,10,26,07,18,8.80
2017,10,26,07,19,8.90
2017,10,26,07,20,8.90
2017,10,26,07,21,8.90
2017,10,26,07,22,8.90
2017,10,26,07,23,8.90
2017,10,26,07,24,8.90
2017,10,26,07,25,8.90
2017,10,26,07,26,8.90
2017,10,26,07,27,8.90
2017,10,26,07,28,8.90
2017,10,26,07,29,8.90
2017,10,26,07,30,8.90
2017,10,26,07,31,9.00
2017,10,26,07,32,9.00
2017,10,26,07,33,9.00
2017,10,26,07,34,9.00
2017,10,26,07,35,9.00
2017,10,26,07,36,9.00
2017,10,26,07,37,9.10
2017,10,26,07,38,9.10
2017,10,26,07,39,9.00
2017,10,26,07,40,9.00
2017,10,26,07,41,9.00
2017,10,26,07,42,9.00
2017,10,26,07,43,9.00
2017,10,26,07,44,9.00
2017,10,26,07,45,9.00
2017,10,26,07,46,9.00
2017,10,26,07,47,9.00
2017,10,26,07,48,9.00
2017,10,26,07,49,9.00
2017,10,26,07,50,9.00
2017,10,26,07,51,9.00
2017,10,26,07,52,9.00
2017,10,26,07,53,9.00
2017,10,26,07,54,9.00
2017,10,26,07,55,9.00
2017,10,26,07,56,9.00
2017,10,26,07,57,9.00
2017,10,26,07,58,8.90
2017,10,26,07,59,8.90
2017,10,26,08,00,8.90
2017,10,26,08,01,8.90
2017,10,26,08,02,8.90
2017,10,26,08,03,8.90
2017,10,26,08,04,8.90
2017,10,26,08,05,8.90
2017,10,26,08,06,8.90
2017,10,26,08,07,8.90
2017,10,26,08,08,8.90
2017,10,26,08,09,8.90
2017,10,26,08,10,8.90
2017,10,26,08,11,8.90
2017,10,26,08,12,8.90
2017,10,26,08,13,8.90
2017,10,26,08,14,8.90
2017,10,26,08,15,8.80
2017,10,26,08,16,8.80
2017,10,26,08,17,8.80
2017,10,26,08,18,8.80
2017,10,26,08,19,8.80
2017,10,26,08,20,8.80
2017,10,26,08,21,8.80
2017,10,26,08,22,8.80
2017,10,26,08,23,8.80
2017,10,26,08,24,8.80
2017,10,26,08,25,8.80
2017,10,26,08,26,8.80
2017,10,26,08,27,8.80
2017,10,26,08,28,8.80
2017,10,26,08,29,8.80
2017,10,26,08,30,8.80
2017,10,26,08,31,8.80
2017,10,26,08,32,8.80
2017,10,26,08,33,8.80
2017,10,26,08,34,8.90
2017,10,26,08,35,8.90
2017,10,26,08,36,8.90
2017,10,26,08,37,8.90
2017,10,26,08,38,8.90
2017,10,26,08,39,8.90
2017,10,26,08,40,8.90
2017,10,26,08,41,8.90
2017,10,26,08,42,8.90
2017,10,26,08,43,8.90
2017,10,26,08,44,9.00
2017,10,26,08,45,9.00
2017,10,26,08,46,9.10
2017,10,26,08,47,9.10
2017,10,26,08,48,9.10
2017,10,26,08,49,9.10
2017,10,26,08,50,9.10
2017,10,26,08,51,9.20
2017,10,26,08,52,9.20
2017,10,26,08,53,9.20
2017,10,26,08,54,9.20
2017,10,26,08,55,9.30
2017,10,26,08,56,9.30
2017,10,26,08,57,9.30
2017,10,26,08,58,9.40
2017,10,26,08,59,9.40
2017,10,26,09,00,9.40
2017,10,26,09,01,9.50
2017,10,26,09,02,9.50
2017,10,26,09,03,9.60
2017,10,26,09,04,9.60
2017,10,26,09,05,9.60
2017,10,26,09,06,9.70
2017,10,26,09,07,9.70
2017,10,26,09,08,9.70
2017,10,26,09,09,9.70
2017,10,26,09,10,9.70
2017,10,26,09,11,9.70
2017,10,26,09,12,9.70
2017,10,26,09,13,9.70
2017,10,26,09,14,9.70
2017,10,26,09,15,9.80
2017,10,26,09,16,9.80
2017,10,26,09,17,9.80
2017,10,26,09,18,9.80
2017,10,26,09,19,9.80
2017,10,26,09,20,9.90
2017,10,26,09,21,9.90
2017,10,26,09,22,9.90
2017,10,26,09,23,9.90
2017,10,26,09,24,9.90
2017,10,26,09,25,9.90
2017,10,26,09,26,9.90
2017,10,26,09,27,9.90
2017,10,26,09,28,9.90
2017,10,26,09,29,9.90
2017,10,26,09,30,9.90
2017,10,26,09,31,10.00
2017,10,26,09,32,10.00
2017,10,26,09,33,10.00
2017,10,26,09,34,10.00
2017,10,26,09,35,10.00
2017,10,26,09,36,10.00
2017,10,26,09,37,10.00
2017,10,26,09,38,10.00
2017,10,26,09,39,10.00
2017,10,26,09,40,10.00
2017,10,26,09,41,10.10
2017,10,26,09,42,10.10
2017,10,26,09,43,10.10
2017,10,26,09,44,10.10
2017,10,26,09,45,10.10
2017,10,26,09,46,10.10
2017,10,26,09,47,10.10
2017,10,26,09,48,10.10
2017,10,26,09,49,10.10
2017,10,26,09,50,10.20
2017,10,26,09,51,10.20
2017,10,26,09,52,10.20
2017,10,26,09,53,10.20
2017,10,26,09,54,10.20
2017,10,26,09,55,10.30
2017,10,26,09,56,10.30
2017,10,26,09,57,10.40
2017,10,26,09,58,10.40
2017,10,26,09,59,10.40
2017,10,26,10,00,10.50
2017,10,26,10,01,10.50
2017,10,26,10,02,10.50
2017,10,26,10,03,10.60
2017,10,26,10,04,10.60
2017,10,26,10,05,10.60
2017,10,26,10,06,10.70
2017,10,26,10,07,10.70
2017,10,26,10,08,10.70
2017,10,26,10,09,10.80
2017,10,26,10,10,10.80
2017,10,26,10,11,10.80
2017,10,26,10,12,10.90
2017,10,26,10,13,10.90
2017,10,26,10,14,10.90
2017,10,26,10,15,11.00
2017,10,26,10,16,11.00
2017,10,26,10,17,11.00
2017,10,26,10,18,11.10
2017,10,26,10,19,11.10
2017,10,26,10,20,11.10
2017,10,26,10,21,11.20
2017,10,26,10,22,11.20
2017,10,26,10,23,11.20
2017,10,26,10,24,11.20
2017,10,26,10,25,11.30
2017,10,26,10,26,11.30
2017,10,26,10,27,11.30
2017,10,26,10,28,11.30
2017,10,26,10,29,11.30
2017,10,26,10,30,11.40
2017,10,26,10,31,11.40
2017,10,26,10,32,11.40
2017,10,26,10,33,11.50
2017,10,26,10,34,11.50
2017,10,26,10,35,11.50
2017,10,26,10,36,11.60
2017,10,26,10,37,11.60
2017,10,26,10,38,11.60
2017,10,26,10,39,11.60
2017,10,26,10,40,11.60
2017,10,26,10,41,11.70
2017,10,26,10,42,11.70
2017,10,26,10,43,11.70
2017,10,26,10,44,11.70
2017,10,26,10,45,11.70
2017,10,26,10,46,11.80
2017,10,26,10,47,11.80
2017,10,26,10,48,11.80
2017,10,26,10,49,11.80
2017,10,26,10,50,11.90
2017,10,26,10,51,11.90
2017,10,26,10,52,11.90
2017,10,26,10,53,11.90
2017,10,26,10,54,12.00
2017,10,26,10,55,12.00
2017,10,26,10,56,11.90
2017,10,26,10,57,11.90
2017,10,26,10,58,11.90
2017,10,26,10,59,11.90
2017,10,26,11,00,11.90
2017,10,26,11,01,11.90
2017,10,26,11,02,11.90
2017,10,26,11,03,12.00
2017,10,26,11,04,12.00
2017,10,26,11,05,12.10
2017,10,26,11,06,12.10
2017,10,26,11,07,12.10
2017,10,26,11,08,12.10
2017,10,26,11,09,12.10
2017,10,26,11,10,12.10
2017,10,26,11,11,12.10
2017,10,26,11,12,12.10
2017,10,26,11,13,12.10
2017,10,26,11,14,12.10
2017,10,26,11,15,12.10
2017,10,26,11,16,12.00
2017,10,26,11,17,12.00
2017,10,26,11,18,12.00
2017,10,26,11,19,12.00
2017,10,26,11,20,12.00
2017,10,26,11,21,12.00
2017,10,26,11,22,12.10
2017,10,26,11,23,12.10
2017,10,26,11,24,12.10
2017,10,26,11,25,12.20
2017,10,26,11,26,12.20
2017,10,26,11,27,12.20
2017,10,26,11,28,12.20
2017,10,26,11,29,12.20
2017,10,26,11,30,12.30
2017,10,26,11,31,12.30
2017,10,26,11,32,12.40
2017,10,26,11,33,12.40
2017,10,26,11,34,12.40
2017,10,26,11,35,12.40
2017,10,26,11,36,12.50
2017,10,26,11,37,12.50
2017,10,26,11,38,12.50
2017,10,26,11,39,12.50
2017,10,26,11,40,12.50
2017,10,26,11,41,12.40
2017,10,26,11,42,12.40
2017,10,26,11,43,12.50
2017,10,26,11,44,12.50
2017,10,26,11,45,12.50
2017,10,26,11,46,12.60
2017,10,26,11,47,12.70
2017,10,26,11,48,12.70
2017,10,26,11,49,12.70
2017,10,26,11,50,12.70
2017,10,26,11,51,12.70
2017,10,26,11,52,12.70
2017,10,26,11,53,12.70
2017,10,26,11,54,12.80
2017,10,26,11,55,12.90
2017,10,26,11,56,12.90
2017,10,26,11,57,13.00
2017,10,26,11,58,13.10
2017,10,26,11,59,13.10
2017,10,26,12,00,13.20
2017,10,26,12,01,13.20
2017,10,26,12,02,13.30
2017,10,26,12,03,13.30
2017,10,26,12,04,13.40
2017,10,26,12,05,13.50
2017,10,26,12,06,13.50
2017,10,26,12,07,13.50
2017,10,26,12,08,13.60
2017,10,26,12,09,13.60
2017,10,26,12,10,13.60
2017,10,26,12,11,13.60
2017,10,26,12,12,13.60
2017,10,26,12,13,13.50
2017,10,26,12,14,13.40
2017,10,26,12,15,13.30
2017,10,26,12,16,13.30
2017,10,26,12,17,13.30
2017,10,26,12,18,13.30
2017,10,26,12,19,13.20
2017,10,26,12,20,13.20
2017,10,26,12,21,13.20
2017,10,26,12,22,13.20
2017,10,26,12,23,13.20
2017,10,26,12,24,13.20
2017,10,26,12,25,13.20
2017,10,26,12,26,13.20
2017,10,26,12,27,13.20
2017,10,26,12,28,13.30
2017,10,26,12,29,13.30
2017,10,26,12,30,13.30
2017,10,26,12,31,13.30
2017,10,26,12,32,13.30
2017,10,26,12,33,13.40
2017,10,26,12,34,13.40
2017,10,26,12,35,13.50
2017,10,26,12,36,13.50
2017,10,26,12,37,13.60
2017,10,26,12,38,13.60
2017,10,26,12,39,13.60
2017,10,26,12,40,13.60
2017,10,26,12,41,13.60
2017,10,26,12,42,13.60
2017,10,26,12,43,13.70
2017,10,26,12,44,13.70
2017,10,26,12,45,13.70
2017,10,26,12,46,13.70
2017,10,26,12,47,13.70
2017,10,26,12,48,13.70
2017,10,26,12,49,13.70
2017,10,26,12,50,13.70
2017,10,26,12,51,13.70
2017,10,26,12,52,13.80
2017,10,26,12,53,13.80
2017,10,26,12,54,13.80
2017,10,26,12,55,13.80
2017,10,26,12,56,13.80
2017,10,26,12,57,14.00
2017,10,26,12,58,14.10
2017,10,26,12,59,14.20
2017,10,26,13,00,14.30
2017,10,26,13,01,14.20
2017,10,26,13,02,14.20
2017,10,26,13,03,14.30
2017,10,26,13,04,14.30
2017,10,26,13,05,14.30
2017,10,26,13,06,14.30
2017,10,26,13,07,14.30
2017,10,26,13,08,14.30
2017,10,26,13,09,14.20
2017,10,26,13,10,14.20
2017,10,26,13,11,14.20
2017,10,26,13,12,14.20
2017,10,26,13,13,14.20
2017,10,26,13,14,14.20
2017,10,26,13,15,14.20
2017,10,26,13,16,14.30
2017,10,26,13,17,14.30
2017,10,26,13,18,14.20
2017,10,26,13,19,14.20
2017,10,26,13,20,14.20
2017,10,26,13,21,14.20
2017,10,26,13,22,14.20
2017,10,26,13,23,14.20
2017,10,26,13,24,14.30
2017,10,26,13,25,14.30
2017,10,26,13,26,14.30
2017,10,26,13,27,14.30
2017,10,26,13,28,14.30
2017,10,26,13,29,14.30
2017,10,26,13,30,14.20
2017,10,26,13,31,14.30
2017,10,26,13,32,14.30
2017,10,26,13,33,14.30
2017,10,26,13,34,14.40
2017,10,26,13,35,14.40
2017,10,26,13,36,14.40
2017,10,26,13,37,14.40
2017,10,26,13,38,14.40
2017,10,26,13,39,14.30
2017,10,26,13,40,14.30
2017,10,26,13,41,14.30
2017,10,26,13,42,14.40
2017,10,26,13,43,14.50
2017,10,26,13,44,14.50
2017,10,26,13,45,14.60
2017,10,26,13,46,14.70
2017,10,26,13,47,14.70
2017,10,26,13,48,14.80
2017,10,26,13,49,14.70
2017,10,26,13,50,14.70
2017,10,26,13,51,14.70
2017,10,26,13,52,14.70
2017,10,26,13,53,14.70
2017,10,26,13,54,14.80
2017,10,26,13,55,14.90
2017,10,26,13,56,15.00
2017,10,26,13,57,15.10
2017,10,26,13,58,15.20
2017,10,26,13,59,15.30
2017,10,26,14,00,15.30
2017,10,26,14,01,15.40
2017,10,26,14,02,15.40
2017,10,26,14,03,15.30
2017,10,26,14,04,15.30
2017,10,26,14,05,15.30
2017,10,26,14,06,15.30
2017,10,26,14,07,15.30
2017,10,26,14,08,15.30
2017,10,26,14,09,15.20
2017,10,26,14,10,15.20
2017,10,26,14,11,15.20
2017,10,26,14,12,15.20
2017,10,26,14,13,15.10
2017,10,26,14,14,15.10
2017,10,26,14,15,15.00
2017,10,26,14,16,15.00
2017,10,26,14,17,15.00
2017,10,26,14,18,15.00
2017,10,26,14,19,15.10
2017,10,26,14,20,15.20
2017,10,26,14,21,15.10
2017,10,26,14,22,15.10
2017,10,26,14,23,15.10
2017,10,26,14,24,15.10
2017,10,26,14,25,15.10
2017,10,26,14,26,15.10
2017,10,26,14,27,15.20
2017,10,26,14,28,15.20
2017,10,26,14,29,15.20
2017,10,26,14,30,15.30
2017,10,26,14,31,15.30
2017,10,26,14,32,15.30
2017,10,26,14,33,15.40
2017,10,26,14,34,15.50
2017,10,26,14,35,15.50
2017,10,26,14,36,15.50
2017,10,26,14,37,15.50
2017,10,26,14,38,15.50
2017,10,26,14,39,15.60
2017,10,26,14,40,15.70
2017,10,26,14,41,15.60
2017,10,26,14,42,15.60
2017,10,26,14,43,15.50
2017,10,26,14,44,15.50
2017,10,26,14,45,15.40
2017,10,26,14,46,15.40
2017,10,26,14,47,15.50
2017,10,26,14,48,15.50
2017,10,26,14,49,15.60
2017,10,26,14,50,15.60
2017,10,26,14,51,15.60
2017,10,26,14,52,15.60
2017,10,26,14,53,15.60
2017,10,26,14,54,15.60
2017,10,26,14,55,15.60
2017,10,26,14,56,15.50
2017,10,26,14,57,15.50
2017,10,26,14,58,15.40
2017,10,26,14,59,15.50
2017,10,26,15,00,15.50
2017,10,26,15,01,15.40
2017,10,26,15,02,15.40
2017,10,26,15,03,15.50
2017,10,26,15,04,15.50
2017,10,26,15,05,15.60
2017,10,26,15,06,15.60
2017,10,26,15,07,15.50
2017,10,26,15,08,15.50
2017,10,26,15,09,15.50
2017,10,26,15,10,15.50
2017,10,26,15,11,15.50
2017,10,26,15,12,15.50
2017,10,26,15,13,15.40
2017,10,26,15,14,15.40
2017,10,26,15,15,15.40
2017,10,26,15,16,15.40
2017,10,26,15,17,15.40
2017,10,26,15,18,15.40
2017,10,26,15,19,15.50
2017,10,26,15,20,15.40
2017,10,26,15,21,15.30
2017,10,26,15,22,15.30
2017,10,26,15,23,15.30
2017,10,26,15,24,15.30
2017,10,26,15,25,15.20
2017,10,26,15,26,15.20
2017,10,26,15,27,15.20
2017,10,26,15,28,15.20
2017,10,26,15,29,15.10
2017,10,26,15,30,15.00
2017,10,26,15,31,14.90
2017,10,26,15,32,14.70
2017,10,26,15,33,14.60
2017,10,26,15,34,14.60
2017,10,26,15,35,14.60
2017,10,26,15,36,14.60
2017,10,26,15,37,14.60
2017,10,26,15,38,14.50
2017,10,26,15,39,14.60
2017,10,26,15,40,14.60
2017,10,26,15,41,14.60
2017,10,26,15,42,14.50
2017,10,26,15,43,14.50
2017,10,26,15,44,14.50
2017,10,26,15,45,14.50
2017,10,26,15,46,14.60
2017,10,26,15,47,14.60
2017,10,26,15,48,14.60
2017,10,26,15,49,14.70
2017,10,26,15,50,14.80
2017,10,26,15,51,14.80
2017,10,26,15,52,14.80
2017,10,26,15,53,14.80
2017,10,26,15,54,14.80
2017,10,26,15,55,14.70
2017,10,26,15,56,14.70
2017,10,26,15,57,14.70
2017,10,26,15,58,14.60
2017,10,26,15,59,14.70
2017,10,26,16,00,14.60
2017,10,26,16,01,14.70
2017,10,26,16,02,14.70
2017,10,26,16,03,14.70
2017,10,26,16,04,14.70
2017,10,26,16,05,14.70
2017,10,26,16,06,14.70
2017,10,26,16,07,14.70
2017,10,26,16,08,14.70
2017,10,26,16,09,14.70
2017,10,26,16,10,14.70
2017,10,26,16,11,14.70
2017,10,26,16,12,14.80
2017,10,26,16,13,14.80
2017,10,26,16,14,14.80
2017,10,26,16,15,14.80
2017,10,26,16,16,14.70
2017,10,26,16,17,14.70
2017,10,26,16,18,14.80
2017,10,26,16,19,14.80
2017,10,26,16,20,14.80
2017,10,26,16,21,14.80
2017,10,26,16,22,14.80
2017,10,26,16,23,14.80
2017,10,26,16,24,14.70
2017,10,26,16,25,14.70
2017,10,26,16,26,14.70
2017,10,26,16,27,14.70
2017,10,26,16,28,14.70
2017,10,26,16,29,14.70
2017,10,26,16,30,14.70
2017,10,26,16,31,14.70
2017,10,26,16,32,14.70
2017,10,26,16,33,14.70
2017,10,26,16,34,14.70
2017,10,26,16,35,14.70
2017,10,26,16,36,14.70
2017,10,26,16,37,14.70
2017,10,26,16,38,14.70
2017,10,26,16,39,14.70
2017,10,26,16,40,14.70
2017,10,26,16,41,14.70
2017,10,26,16,42,14.60
2017,10,26,16,43,14.50
2017,10,26,16,44,14.50
2017,10,26,16,45,14.40
2017,10,26,16,46,14.40
2017,10,26,16,47,14.40
2017,10,26,16,48,14.40
2017,10,26,16,49,14.30
2017,10,26,16,50,14.30
2017,10,26,16,51,14.30
2017,10,26,16,52,14.30
2017,10,26,16,53,14.30
2017,10,26,16,54,14.20
2017,10,26,16,55,14.20
2017,10,26,16,56,14.20
2017,10,26,16,57,14.20
2017,10,26,16,58,14.20
2017,10,26,16,59,14.20
2017,10,26,17,00,14.20
2017,10,26,17,01,14.20
2017,10,26,17,02,14.20
2017,10,26,17,03,14.10
2017,10,26,17,04,14.10
2017,10,26,17,05,14.10
2017,10,26,17,06,14.10
2017,10,26,17,07,14.10
2017,10,26,17,08,14.10
2017,10,26,17,09,14.10
2017,10,26,17,10,14.10
2017,10,26,17,11,14.20
2017,10,26,17,12,14.20
2017,10,26,17,13,14.20
2017,10,26,17,14,14.20
2017,10,26,17,15,14.20
2017,10,26,17,16,14.30
2017,10,26,17,17,14.30
2017,10,26,17,18,14.40
2017,10,26,17,19,14.40
2017,10,26,17,20,14.50
2017,10,26,17,21,14.50
2017,10,26,17,22,14.60
2017,10,26,17,23,14.60
2017,10,26,17,24,14.60
2017,10,26,17,25,14.60
2017,10,26,17,26,14.60
2017,10,26,17,27,14.60
2017,10,26,17,28,14.50
2017,10,26,17,29,14.50
2017,10,26,17,30,14.40
2017,10,26,17,31,14.40
2017,10,26,17,32,14.40
2017,10,26,17,33,14.40
2017,10,26,17,34,14.40
2017,10,26,17,35,14.40
2017,10,26,17,36,14.30
2017,10,26,17,37,14.30
2017,10,26,17,38,14.30
2017,10,26,17,39,14.30